Location: *
(44.1392°N, 4.8079°E)
Time: 06:24:32
(UTC+00:00)

Cosmos 1271 Rocket - Pass Details

Date: 21 June 2021
Orbit: 498 x 544 km, 81.2° (Epoch: 02 August)

Event Time Altitude Azimuth Distance (km) Brightness Sun altitude
Rises 02:00:06 0° 355° (N) 2,600 7.2 -15.4°
Reaches altitude 10° 02:02:18 10° 2° (N) 1,713 6.3 -15.2°
Maximum altitude 02:05:54 45° 76° (ENE) 694 3.7 -14.9°
Drops below altitude 10° 02:09:31 10° 150° (SSE) 1,712 5.1 -14.5°
Enters shadow 02:10:16 - 153° (SSE) 2,008 5.4 -14.4°
